Temp
23 23 23 22 22 22 22 22 22 21 21 21 21 20 19 19 19 19 19 18 18 17 17 17 17 16 16 15 15 14 14 13 13 12 11 10 10 9 9 9 9 8 8
24 23 23 22 22 22 23 23 23 22 22 22 21 20 20 19 19 19 20 19 18 17 17 17 17 16 16 16 15 15 14 13 12 11 11 10 10 9 9 9 9 8 8
24 24 23 23 22 23 23 23 23 23 23 22 22 21 20 19 19 19 19 18 18 17 17 17 17 17 16 16 14 13 13 13 12 12 11 10 10 9 9 9 8 8 8
24 24 23 23 23 23 23 23 24 23 23 22 22 21 20 20 19 19 19 18 18 18 17 17 17 16 16 15 13 13 12 12 12 11 10 10 10 9 8 8 8 8 8
24 24 24 24 23 23 23 23 23 24 23 22 22 21 20 20 19 19 19 19 19 18 17 17 17 16 16 14 13 12 12 11 11 10 10 10 9 9 8 8 8 8 8
24 24 24 24 23 23 23 23 23 23 24 23 22 21 21 20 19 19 19 19 18 17 17 17 17 15 15 14 13 12 12 11 10 10 9 9 9 8 8 7 8 7 7
25 24 25 24 24 23 23 23 22 23 23 23 22 21 21 20 19 19 19 19 18 17 17 17 16 15 14 14 13 12 11 10 10 9 9 8 9 9 8 7 7 7 7
25 26 26 25 24 24 23 23 23 22 22 23 23 22 21 21 20 19 19 19 18 17 17 17 16 15 14 13 13 12 11 10 10 9 8 8 8 9 9 8 8 7 7
24 25 26 26 25 24 24 23 23 23 22 23 22 22 22 21 20 19 18 19 18 17 17 16 16 15 15 13 13 12 11 10 10 9 8 8 8 9 9 8 8 7 7
25 25 25 25 25 25 25 24 23 23 22 22 22 21 21 21 20 19 18 19 18 17 17 16 16 15 14 13 13 12 12 11 10 9 9 8 8 9 9 9 8 8 7
23 24 24 25 25 25 25 25 24 23 22 21 21 21 21 21 20 19 18 18 18 17 17 17 16 16 14 13 13 12 12 11 10 10 9 8 8 9 9 8 8 8 8
22 24 24 24 25 25 25 24 24 23 22 22 22 21 21 20 19 18 19 18 18 17 17 17 16 16 15 14 13 12 12 11 11 10 10 9 8 8 8 7 8 8 8
21 23 23 23 24 25 25 24 24 23 22 22 22 21 21 20 19 19 19 18 17 17 16 16 16 16 15 14 13 13 12 12 11 10 10 9 8 8 8 8 7 7 7
19 22 22 23 23 25 25 24 24 23 23 22 22 21 21 20 19 18 19 18 17 17 16 16 16 16 15 14 13 13 13 12 11 11 10 9 9 9 8 7 7 7 7
22 20 21 23 24 24 23 23 23 23 22 22 22 22 21 21 20 19 18 18 18 17 17 16 16 16 16 15 14 13 13 13 12 11 10 10 9 9 9 8 8 7 7
19 19 19 21 22 23 22 22 22 22 21 21 21 20 20 20 20 19 19 18 17 17 17 18 17 16 16 15 14 13 13 13 12 11 11 10 10 9 9 8 8 8 9
18 19 21 20 20 21 22 21 21 21 20 20 20 21 20 19 20 19 19 18 18 17 18 17 17 17 16 16 15 14 13 13 13 12 11 10 10 10 9 9 9 7 8
18 19 20 20 21 21 21 21 22 21 20 19 19 19 19 19 19 19 19 18 17 17 17 16 17 16 16 16 15 15 14 13 13 13 12 11 10 10 10 10 9 9 9
18 18 17 19 19 20 20 21 21 21 19 19 18 18 18 18 18 18 19 19 18 17 18 16 16 16 16 15 15 15 14 13 13 13 13 12 11 11 11 10 10 10 10
17 16 16 17 17 18 17 17 18 19 18 18 17 18 18 18 16 18 18 18 17 17 17 17 16 15 15 15 15 15 14 14 13 13 13 12 11 11 11 11 10 10 10
15 16 16 16 16 16 15 16 16 16 16 16 17 17 19 23 19 17 22 20 19 17 18 17 16 16 15 15 15 15 14 14 13 13 13 13 12 12 11 11 11 11 11
15 16 16 16 16 16 16 16 16 18 19 18 17 17 18 18 16 19 20 18 17 17 18 17 16 16 15 16 16 16 15 14 14 14 13 13 13 12 11 11 11 11 11
13 13 14 14 15 14 14 15 15 15 16 17 16 15 14 14 15 16 16 15 15 14 16 17 15 16 15 16 15 16 15 15 15 14 14 13 13 13 13 12 12 12 11
12 13 13 13 13 13 13 14 13 14 14 13 13 13 13 14 16 15 13 15 14 13 14 15 14 14 15 16 15 15 15 15 15 14 14 14 14 13 14 13 12 12 12
11 11 11 11 12 12 12 12 13 13 13 13 13 12 12 13 13 14 14 14 14 15 15 15 14 14 15 15 15 15 15 16 15 15 14 14 14 13 13 14 13 12 12
10 9 9 10 10 11 11 12 12 12 12 12 13 13 13 13 13 13 13 13 13 14 16 15 14 14 14 15 15 15 15 15 16 15 14 14 14 14 13 13 13 13 13
Height
1532 1536 1540 1543 1546 1549 1551 1554 1556 1558 1559 1559 1559 1559 1558 1556 1555 1553 1551 1549 1547 1546 1544 1543 1542 1539 1537 1535 1532 1530 1528 1526 1524 1522 1521 1520 1518 1518 1518 1519 1518 1515 1513
1526 1531 1536 1539 1542 1545 1547 1550 1552 1554 1556 1556 1557 1557 1556 1555 1554 1553 1551 1549 1547 1546 1544 1543 1542 1540 1538 1535 1533 1531 1529 1525 1523 1520 1519 1518 1518 1517 1516 1512 1512 1513 1513
1521 1526 1531 1535 1537 1539 1542 1546 1548 1551 1552 1553 1554 1555 1554 1553 1553 1552 1551 1548 1546 1546 1544 1543 1541 1539 1538 1536 1534 1533 1529 1526 1523 1520 1519 1518 1517 1514 1514 1514 1513 1513 1512
1515 1520 1526 1530 1533 1536 1539 1541 1544 1547 1549 1550 1550 1551 1551 1551 1552 1551 1550 1548 1547 1546 1544 1542 1541 1540 1538 1537 1535 1533 1531 1529 1526 1523 1521 1519 1516 1515 1514 1514 1513 1511 1510
1509 1514 1519 1525 1529 1532 1535 1537 1540 1542 1545 1547 1547 1548 1549 1550 1550 1550 1549 1547 1546 1544 1543 1542 1542 1540 1539 1538 1537 1535 1534 1531 1529 1527 1524 1520 1518 1516 1514 1512 1511 1510 1509
1504 1508 1513 1519 1524 1527 1531 1534 1536 1538 1540 1543 1544 1545 1546 1547 1548 1548 1547 1546 1545 1544 1543 1543 1542 1542 1541 1540 1539 1537 1536 1534 1532 1530 1528 1523 1520 1516 1513 1512 1511 1510 1508
1499 1503 1507 1513 1518 1523 1526 1530 1532 1534 1537 1539 1541 1542 1543 1544 1545 1546 1546 1545 1544 1543 1543 1543 1543 1543 1542 1541 1540 1540 1539 1537 1535 1533 1530 1526 1521 1517 1513 1512 1511 1510 1507
1496 1501 1505 1509 1513 1518 1521 1525 1528 1531 1533 1535 1537 1538 1540 1542 1542 1543 1544 1544 1543 1543 1543 1544 1543 1543 1544 1543 1543 1542 1541 1538 1537 1535 1532 1529 1525 1521 1517 1513 1511 1510 1508
1492 1497 1501 1506 1510 1513 1516 1519 1523 1526 1529 1531 1533 1535 1537 1539 1540 1541 1542 1542 1541 1541 1542 1542 1543 1543 1544 1545 1545 1545 1544 1543 1540 1538 1535 1532 1529 1524 1520 1517 1513 1511 1510
1487 1493 1498 1502 1506 1509 1512 1515 1518 1520 1525 1528 1530 1531 1533 1534 1537 1538 1540 1540 1540 1540 1542 1542 1543 1543 1544 1545 1547 1546 1545 1543 1542 1540 1538 1535 1532 1527 1523 1520 1516 1513 1511
1483 1488 1493 1497 1501 1505 1508 1511 1514 1516 1520 1523 1525 1527 1529 1531 1534 1536 1538 1538 1539 1540 1541 1541 1542 1543 1544 1545 1547 1547 1546 1545 1544 1542 1540 1538 1535 1531 1526 1524 1520 1516 1514
1480 1482 1487 1492 1495 1498 1502 1506 1509 1512 1515 1517 1519 1522 1525 1529 1532 1535 1536 1537 1538 1539 1541 1542 1541 1541 1542 1544 1546 1548 1548 1548 1546 1544 1543 1541 1539 1535 1531 1529 1526 1522 1522
1479 1479 1483 1486 1489 1492 1495 1500 1504 1507 1510 1512 1514 1518 1521 1526 1530 1533 1534 1535 1537 1538 1538 1538 1541 1542 1543 1543 1545 1546 1548 1549 1549 1547 1546 1545 1542 1539 1537 1534 1531 1529 1528
1478 1476 1479 1479 1484 1487 1491 1493 1497 1501 1505 1509 1511 1514 1518 1523 1526 1529 1530 1533 1533 1535 1537 1537 1537 1540 1543 1543 1544 1546 1548 1549 1550 1549 1548 1547 1545 1543 1541 1540 1537 1534 1534
1472 1469 1476 1478 1479 1484 1488 1490 1493 1497 1502 1505 1507 1509 1512 1517 1520 1524 1527 1529 1532 1533 1535 1537 1538 1537 1540 1542 1543 1545 1547 1548 1550 1551 1550 1549 1548 1546 1545 1544 1544 1541 1539
1483 1479 1479 1473 1472 1477 1484 1486 1489 1492 1495 1497 1500 1503 1506 1510 1514 1519 1522 1525 1528 1531 1533 1533 1537 1538 1537 1541 1543 1545 1547 1548 1549 1550 1551 1550 1550 1550 1549 1548 1548 1548 1545
1475 1474 1473 1468 1457 1472 1479 1483 1484 1487 1489 1493 1496 1499 1502 1505 1509 1510 1516 1520 1523 1525 1529 1531 1534 1538 1536 1538 1543 1545 1546 1547 1548 1550 1552 1552 1551 1552 1552 1552 1552 1552 1551
1473 1469 1467 1466 1469 1474 1476 1477 1480 1483 1486 1489 1492 1494 1496 1498 1501 1505 1507 1513 1518 1521 1526 1530 1533 1536 1538 1536 1541 1545 1545 1547 1548 1549 1551 1553 1553 1554 1555 1555 1555 1555 1555
1476 1473 1471 1471 1473 1474 1472 1474 1475 1477 1480 1484 1486 1488 1490 1491 1496 1498 1500 1504 1513 1517 1522 1527 1530 1535 1538 1537 1538 1541 1545 1546 1547 1549 1552 1554 1554 1554 1556 1557 1557 1557 1558
1474 1474 1473 1472 1470 1472 1473 1474 1475 1475 1476 1473 1483 1484 1487 1471 1485 1499 1503 1503 1507 1512 1517 1523 1527 1532 1534 1536 1534 1538 1541 1542 1545 1547 1551 1553 1555 1556 1557 1558 1558 1559 1559
1475 1473 1472 1474 1473 1473 1475 1473 1473 1473 1473 1471 1475 1479 1482 1469 1482 1490 1497 1496 1498 1503 1510 1519 1523 1527 1530 1533 1532 1534 1539 1541 1544 1547 1549 1551 1554 1557 1557 1558 1559 1559 1560
1477 1477 1475 1475 1476 1474 1472 1472 1471 1470 1468 1470 1474 1475 1474 1471 1478 1487 1490 1492 1497 1499 1500 1512 1518 1523 1527 1530 1530 1531 1535 1539 1540 1544 1549 1550 1550 1554 1558 1558 1560 1561 1562
1476 1475 1475 1475 1473 1472 1470 1470 1469 1469 1469 1468 1474 1472 1474 1479 1483 1486 1488 1492 1494 1498 1497 1506 1514 1519 1524 1527 1527 1530 1532 1536 1540 1541 1544 1547 1548 1549 1552 1557 1558 1561 1563
1477 1476 1474 1475 1474 1474 1474 1474 1472 1472 1474 1476 1477 1478 1480 1482 1485 1487 1491 1492 1494 1495 1497 1504 1511 1516 1521 1523 1523 1525 1528 1531 1535 1539 1542 1544 1546 1547 1547 1550 1556 1559 1561
1480 1478 1478 1477 1474 1475 1477 1478 1478 1480 1483 1482 1482 1482 1483 1483 1486 1489 1488 1491 1492 1494 1497 1505 1508 1512 1515 1518 1519 1521 1525 1528 1531 1534 1537 1540 1542 1544 1545 1546 1549 1554 1557
1483 1483 1483 1481 1479 1479 1479 1481 1483 1486 1487 1487 1488 1488 1486 1487 1489 1490 1491 1495 1495 1494 1499 1502 1505 1509 1512 1514 1515 1517 1521 1523 1526 1529 1530 1533 1537 1539 1541 1544 1546 1548 1551
Wind_Speed
31 27 23 21 24 25 24 19 17 16 13 12 11 10 10 11 11 11 11 11 12 12 11 10 10 9 9 9 9 7 7 5 5 5 7 9 10 6 4 3 5 6 6
31 29 24 21 21 25 25 21 17 16 14 14 13 11 12 10 11 10 11 12 10 11 10 9 9 9 9 10 10 10 11 10 9 6 7 8 5 3 2 3 5 5 3
34 30 26 24 21 23 24 21 19 17 16 13 12 12 11 8 9 7 9 12 8 9 8 7 8 8 9 10 11 13 14 14 14 11 9 7 5 1 4 7 9 7 7
33 31 26 24 23 21 21 21 17 15 15 13 11 10 9 8 7 5 9 11 8 10 7 6 7 8 9 11 12 16 16 16 17 16 14 10 6 6 7 8 9 7 10
28 32 29 24 23 20 18 19 18 17 15 14 12 10 10 9 6 4 8 8 8 7 5 4 5 7 10 11 12 16 17 18 20 21 19 16 15 11 8 7 5 4 5
23 26 28 26 26 24 20 18 17 17 17 16 14 11 10 9 6 6 8 7 6 5 4 2 4 7 9 10 11 13 15 18 21 23 25 25 22 18 12 7 6 8 5
20 22 22 23 26 26 23 21 20 18 18 18 15 13 11 10 6 6 6 6 6 4 2 1 3 5 7 9 10 11 14 17 21 23 26 29 25 21 16 6 4 7 8
16 19 19 21 22 24 24 23 21 19 17 18 17 14 12 10 8 7 6 6 5 3 1 1 2 4 5 7 9 10 12 14 17 21 23 24 25 21 17 13 5 5 8
16 19 23 20 20 22 24 22 21 20 20 19 18 15 13 11 9 8 7 7 6 5 4 2 1 2 4 6 8 10 12 12 14 17 20 22 25 21 19 15 11 4 6
17 19 22 21 22 21 19 19 20 19 20 20 19 17 14 13 10 9 8 7 8 7 6 4 3 2 3 5 8 10 10 10 11 13 16 20 23 22 20 18 17 16 7
19 20 23 22 23 24 22 19 17 17 18 19 19 18 16 14 11 10 9 8 6 6 6 5 3 2 4 4 6 9 9 10 10 12 13 17 20 23 23 21 20 23 19
22 25 24 23 22 23 23 22 21 18 18 18 20 19 17 15 12 10 9 9 5 4 4 5 5 3 3 5 4 7 8 9 9 12 11 12 17 21 23 22 19 23 20
22 26 26 23 21 19 21 21 22 22 21 20 20 20 18 16 14 13 13 11 8 5 6 7 7 6 5 5 3 4 6 8 9 10 10 10 13 15 18 18 17 20 18
16 13 17 18 18 17 18 20 22 24 24 22 21 20 20 17 16 17 16 15 13 9 11 12 10 9 7 6 5 3 3 5 7 8 10 11 11 12 14 16 19 26 25
20 15 16 15 17 18 15 17 19 19 20 20 19 20 19 19 19 16 17 17 16 11 10 12 13 11 8 7 6 4 3 4 5 5 8 10 11 11 12 15 17 23 26
12 12 20 21 17 15 14 12 13 14 17 17 16 15 13 10 12 17 15 14 18 14 12 10 12 11 8 8 7 5 4 4 4 4 5 8 10 9 10 13 15 16 22
3 10 15 12 12 13 14 12 12 16 17 16 16 16 13 9 11 16 18 14 17 20 16 13 10 11 8 9 9 6 5 4 5 4 5 6 9 8 8 11 12 15 17
6 4 6 2 3 5 8 10 15 15 16 16 18 20 18 16 15 14 19 22 24 22 17 14 10 10 10 8 10 7 8 6 6 5 5 5 7 7 7 10 12 12 14
10 6 4 3 6 6 4 10 11 12 12 8 10 12 11 17 12 8 11 15 23 16 18 18 13 10 10 8 9 10 9 7 6 5 4 4 5 6 6 9 9 13 12
6 5 3 2 5 5 7 7 6 6 5 4 7 12 7 17 20 12 11 15 23 16 18 15 14 12 12 11 9 12 12 11 9 8 6 4 3 4 3 7 9 11 14
6 7 6 2 4 4 5 5 6 9 14 15 22 22 25 24 35 38 32 24 24 22 17 15 13 13 15 14 11 12 14 12 11 9 9 6 5 4 3 5 9 13 15
6 7 5 4 5 3 5 7 7 7 8 14 21 22 18 18 29 37 29 27 28 25 26 17 14 14 14 13 10 11 13 14 13 11 11 9 7 7 8 6 9 13 16
5 4 2 3 2 2 1 1 1 4 9 10 14 14 15 19 15 8 14 22 23 22 22 20 20 17 16 14 12 10 10 11 11 11 12 13 11 9 10 11 11 12 16
9 6 5 6 6 7 7 8 9 10 7 2 7 8 10 11 8 6 11 14 13 16 18 19 17 17 19 20 17 14 13 14 14 14 15 15 14 12 12 14 14 13 13
17 13 11 14 13 13 12 13 16 14 13 10 10 11 10 10 8 9 13 8 10 9 11 14 14 18 19 19 19 19 15 17 15 14 16 18 18 16 14 15 15 15 17
19 20 20 16 17 18 15 16 16 15 14 11 11 11 10 10 9 8 9 12 13 14 14 11 10 13 16 16 15 14 17 18 21 18 17 20 20 21 19 18 19 19 18
Wind_Direction
229 228 231 231 231 230 231 234 239 243 253 272 293 303 329 342 342 349 350 350 5 14 17 21 22 34 22 20 23 19 26 17 350 319 296 311 328 349 348 347 345 353 9
231 230 234 234 233 233 232 231 235 245 255 273 280 290 313 326 330 342 348 350 355 11 15 22 25 36 23 25 30 28 23 16 4 348 326 320 339 5 350 328 306 298 303
231 230 228 233 232 231 231 231 235 248 257 261 270 287 300 308 321 328 330 323 3 3 11 22 34 43 35 36 39 34 35 36 36 42 38 28 20 311 297 321 319 299 280
231 229 225 230 230 230 230 227 226 237 246 249 264 280 287 294 311 332 327 324 346 345 2 20 42 52 48 51 45 49 46 43 43 44 45 37 4 324 313 312 320 291 267
230 227 225 225 227 226 226 226 221 227 238 247 254 263 273 286 297 298 308 312 335 339 353 24 52 58 59 62 54 60 56 50 49 48 45 38 29 15 356 347 353 326 293
231 226 225 223 224 224 224 224 222 223 232 242 246 250 266 276 271 268 296 286 322 325 347 43 75 71 69 68 57 61 56 49 48 45 41 36 29 23 22 50 38 16 348
237 225 224 222 226 226 224 226 226 225 230 232 237 242 258 267 263 250 275 267 302 313 322 31 74 87 78 70 59 51 51 44 44 40 36 35 31 23 27 40 39 20 30
236 221 214 219 218 222 224 226 230 229 234 228 230 235 247 254 251 238 255 258 275 271 260 37 56 69 80 73 61 44 50 46 42 37 33 35 31 29 26 29 60 58 44
233 237 228 220 225 224 229 225 226 229 233 230 226 230 239 240 238 225 228 256 256 240 218 195 106 62 64 81 65 44 39 40 35 34 29 33 32 35 37 38 47 100 71
237 253 247 237 231 222 221 223 227 227 232 232 226 228 232 235 229 218 225 245 249 237 214 216 189 149 101 84 69 55 35 41 28 29 26 29 31 35 36 33 47 60 73
232 246 247 245 239 230 224 223 223 220 228 227 224 226 230 233 228 219 227 241 248 244 225 228 214 199 148 104 70 56 33 36 33 28 24 24 30 34 37 48 58 66 66
235 238 244 244 238 233 232 231 224 222 224 221 223 226 225 227 220 220 230 231 226 233 239 228 214 218 174 139 92 57 30 30 33 32 29 22 28 31 39 44 58 67 61
252 243 247 244 234 224 223 224 227 226 226 226 224 224 223 222 212 219 229 228 205 199 210 216 218 218 200 171 147 89 48 32 38 36 36 29 25 35 46 53 69 79 73
305 231 230 223 225 215 219 218 223 224 227 231 233 231 226 221 214 219 226 227 212 205 210 220 206 208 208 184 165 125 79 53 49 48 49 43 39 49 63 69 84 91 86
274 292 255 220 210 208 206 215 222 228 236 241 244 248 242 230 232 227 228 230 234 220 220 226 218 208 210 201 183 180 152 94 68 58 55 48 44 65 76 83 84 99 102
141 232 271 225 202 198 203 210 225 230 233 235 237 244 249 240 226 225 222 233 231 230 221 224 226 220 203 205 195 182 173 128 98 88 62 54 48 74 87 103 110 103 107
201 195 219 205 222 193 209 214 221 230 232 238 234 237 227 216 210 210 213 218 234 213 215 212 212 225 210 201 203 197 184 158 127 136 97 76 58 72 97 120 117 120 123
357 295 285 293 251 225 229 231 238 230 240 235 236 232 221 206 183 191 200 213 211 218 215 217 206 221 223 204 208 207 200 183 146 150 140 100 79 71 112 129 136 130 132
352 349 317 262 192 190 208 231 229 241 230 217 217 222 231 205 179 204 202 225 217 221 223 216 207 215 231 220 206 206 212 201 173 150 158 133 103 84 120 144 145 147 146
11 36 35 113 167 167 185 186 175 184 180 149 177 135 144 6 344 320 276 222 214 217 218 226 212 215 224 225 208 211 208 206 200 176 165 182 163 115 116 154 159 167 159
80 86 65 89 118 133 148 174 194 188 189 200 233 252 269 261 229 230 229 220 202 194 200 211 211 216 223 224 207 211 210 207 212 205 190 192 218 222 168 173 166 170 172
281 250 267 311 316 281 211 199 195 203 221 242 252 252 246 244 237 215 223 224 210 191 170 199 204 216 218 216 202 198 205 207 205 214 220 208 207 230 233 200 188 173 178
19 0 241 220 241 289 301 358 315 247 231 241 252 253 231 220 226 246 246 224 214 206 183 200 198 204 202 202 195 199 213 221 218 215 223 222 213 211 227 229 204 199 189
43 55 86 122 129 122 126 114 97 91 79 153 233 236 212 212 222 247 189 198 192 188 170 186 195 198 202 205 202 199 216 226 230 237 238 238 231 217 210 217 225 215 209
53 64 92 107 109 121 123 119 111 107 98 91 95 117 144 151 165 185 160 174 190 168 194 203 207 210 219 222 222 219 219 217 209 222 236 237 240 238 230 214 217 223 221
60 65 71 80 97 110 115 113 115 112 108 100 89 98 107 114 112 130 157 172 187 178 197 216 219 227 228 236 232 222 221 217 219 220 225 227 232 237 238 236 225 222 231